This demonstration page uses our WeatherBlox Daily Observations layout. Learn more.

Left ArrowRight Arrow

41.86663, -103.66717

Hourly Observations for February 24, 2019

Temp ( °F °C ) Dew Point ( °F °C ) Humidity (%) Winds ( mph kmh ) Pressure ( in mb ) Visibility ( mi km ) Precip ( " mm )
12:53 am 00:53 Clear 13 -10.6 10 -12.2 88 88 NW 3 6 30.20 1023 10 16 N/A
1:53 am 01:53 Clear 13 -10.6 10 -12.2 88 88 NW 8 13 30.20 1023 10 16 N/A
2:53 am 02:53 Clear 12 -11.1 9 -12.8 87 87 WNW 7 11 30.21 1023 10 16 N/A
3:53 am 03:53 Clear 12 -11.1 8 -13.3 84 84 NNW 7 11 30.21 1023 10 16 N/A
4:53 am 04:53 Clear 10 -12.2 7 -13.9 87 87 NW 5 7 30.26 1025 10 16 N/A
5:53 am 05:53 Clear 9 -12.8 7 -13.9 92 92 N N/A 30.29 1026 10 16 N/A
6:53 am 06:53 Sunny 10 -12.2 5 -15 80 80 W 6 9 30.32 1027 10 16 N/A
7:53 am 07:53 Sunny 15 -9.4 10 -12.2 80 80 N N/A 30.35 1028 10 16 N/A
8:53 am 08:53 Sunny 19 -7.2 13 -10.6 77 77 S 7 11 30.35 1028 10 16 N/A
9:53 am 09:53 Sunny 21 -6.1 12 -11.1 68 68 SSE 5 7 30.35 1028 10 16 N/A
10:53 am 10:53 Sunny 25 -3.9 13 -10.6 60 60 E 5 7 30.34 1028 10 16 N/A
11:53 am 11:53 Sunny 27 -2.8 14 -10 58 58 E 8 13 30.31 1026 10 16 N/A
12:53 pm 12:53 Sunny 30 -1.1 15 -9.4 54 54 ESE 9 15 30.26 1025 10 16 N/A
1:53 pm 13:53 Sunny 32 undefined 16 -8.9 52 52 ESE 13 20 30.21 1023 10 16 N/A
2:53 pm 14:53 Sunny 33 0.6 17 -8.3 52 52 E 14 22 30.20 1023 10 16 N/A
3:53 pm 15:53 Sunny 32 undefined 18 -7.8 56 56 ESE 21 33 30.19 1023 10 16 N/A
4:53 pm 16:53 Sunny 28 -2.2 17 -8.3 63 63 ESE 20 31 30.19 1022 10 16 N/A
5:53 pm 17:53 Clear 23 -5 17 -8.3 78 78 ESE 18 30 30.21 1023 10 16 N/A
6:53 pm 18:53 Clear 21 -6.1 18 -7.8 88 88 ESE 22 35 30.22 1023 10 16 N/A
7:44 pm 19:44 Mostly Cloudy 21 -6 18 -8 86 86 SE 23 37 30.26 1025 10 16 N/A
7:53 pm 19:53 Cloudy 20 -6.7 17 -8.3 89 89 SE 21 33 30.20 1023 10 16 N/A
8:53 pm 20:53 Cloudy 20 -6.7 16 -8.9 85 85 ESE 18 30 30.18 1022 10 16 N/A
9:53 pm 21:53 Cloudy 19 -7.2 16 -8.9 88 88 SE 18 30 30.17 1022 10 16 N/A
10:53 pm 22:53 Cloudy 18 -7.8 15 -9.4 88 88 ESE 15 24 30.14 1021 10 16 N/A
11:51 pm 23:51 Partly Cloudy 16 -9 16 -9 100 100 ESE 15 24 30.25 1024 10 16 N/A
11:53 pm 23:53 Mostly Clear 16 -8.9 15 -9.4 96 96 ESE 15 24 30.12 1020 10 16 N/A

Powered by AerisWeather